Simultaneous Nadir Overpasses (SNOs) Predictions

Prediction of SNOs between GOES-15 and TERRA Satellite Orbit:

Table of predicted SNOs for the next 14.0 days since TLE Epoch: 8/4/2013
Index Date Time (GOES-15) GOES-15 Lat,Lon TERRA Lat,Lon Distance(km) Time Diff (sec)
1 08/05/2013 19:19:00 0.13,-135.30 -0.43,-132.62 303.70 80
2 08/06/2013 07:43:04 -0.16,-135.27 -0.70,-137.81 288.81 80
3 08/08/2013 07:28:14 -0.15,-135.23 -0.05,-134.86 42.70 80
4 08/10/2013 07:16:03 -0.14,-135.19 0.55,-131.90 373.67 80
5 08/10/2013 19:39:58 0.17,-135.20 0.60,-137.05 211.75 80
6 08/12/2013 19:25:08 0.17,-135.15 -0.07,-134.11 118.46 80
7 08/13/2013 07:49:12 -0.20,-135.12 -1.06,-139.30 474.32 80
8 08/14/2013 19:12:57 0.17,-135.09 -0.68,-131.15 447.82 80
9 08/15/2013 07:37:01
